Location: Aracaju
(10.9167°S, 37.0667°W)
Time: 21:44:42
(UTC-03:00)

ISS - Visible Passes

Search period start: 15 July 2018 00:00
Search period end: 25 July 2018 00:00
Orbit: 402 x 408 km, 51.6° (Epoch: 16 July)

Date Brightness Start Highest point End Pass type
(mag) Time Alt. Az. Time Alt. Az. Time Alt. Az.
15 Jul -1.7 18:00:30 10° SSE 18:01:27 12° SE 18:01:27 12° SE visible
16 Jul -3.4 18:43:04 10° SW 18:46:17 62° NW 18:47:08 43° N visible
17 Jul -3.5 17:51:08 10° SSW 17:54:16 42° SE 17:57:23 10° NE visible
18 Jul -0.6 18:36:25 10° W 18:38:28 16° NW 18:40:30 10° NNW visible
19 Jul -2.2 17:43:22 10° SW 17:46:28 40° NW 17:49:33 10° NNE visible
20 Jul 0.0 05:24:02 10° NE 05:25:11 11° NE 05:26:20 10° ENE visible
22 Jul -2.3 05:14:08 10° NNW 05:17:15 42° NE 05:20:24 10° SE visible
23 Jul -0.6 04:23:06 10° NNE 04:25:13 16° NE 04:27:20 10° E visible
24 Jul -3.4 05:06:13 10° NW 05:09:20 41° SW 05:12:29 10° SSE visible
